This is the latest recevied weather packets stored in our database for station/object N0KWA. If no packets are shown the sender has not sent any weather packets the latest 10 day(s).
| Time | Temp. | Humidity | Pressure | Rain* | Wind** | Luminosity | Snow |
|---|---|---|---|---|---|---|---|
| 1788456045 | 31.67° C | 78% | 1017.9 hPa | 0 mm | - | 72 W/m² | - |
| 1788455740 | 31.67° C | 76% | 1018 hPa | 0 mm | - | 208 W/m² | - |
| 1788455436 | 31.67° C | 77% | 1018 hPa | 0 mm | - | 95 W/m² | - |
| 1788455134 | 31.67° C | 77% | 1017.8 hPa | 0 mm | - | 82 W/m² | - |
| 1788454830 | 31.11° C | 76% | 1018.1 hPa | 0 mm | - | 38 W/m² | - |
| 1788454527 | 31.11° C | 77% | 1018.2 hPa | 0 mm | - | 48 W/m² | - |
| 1788454223 | 31.11° C | 79% | 1018.2 hPa | 0 mm | - | 19 W/m² | - |
| 1788453923 | 31.11° C | 77% | 1018.1 hPa | 0 mm | - | 32 W/m² | - |
| 1788453619 | 30.56° C | 83% | 1018.2 hPa | 0 mm | - | 36 W/m² | - |
| 1788453314 | 30.56° C | 82% | 1018.2 hPa | 0 mm | - | 40 W/m² | - |
| 1788453010 | 30° C | 85% | 1018.2 hPa | 0 mm | - | 68 W/m² | - |
| 1788452706 | 30° C | 84% | 1018.3 hPa | 0 mm | - | 41 W/m² | - |
| 1788452401 | 30° C | 81% | 1018.2 hPa | 0 mm | - | 21 W/m² | - |
| 1788452097 | 30° C | 85% | 1018.2 hPa | 0 mm | - | 19 W/m² | - |
| 1788451802 | 30° C | 89% | 1018.2 hPa | 0 mm | - | 35 W/m² | - |
| 1788451491 | 29.44° C | 88% | 1018.2 hPa | 0 mm | - | 102 W/m² | - |
| 1788451191 | 29.44° C | 89% | 1018 hPa | 0 mm | - | 28 W/m² | - |
| 1788450885 | 28.89° C | 89% | 1018 hPa | 0 mm | - | 26 W/m² | - |
| 1788450582 | 28.89° C | 91% | 1018 hPa | 0 mm | - | 169 W/m² | - |
| 1788450277 | 28.89° C | 89% | 1018.1 hPa | 0 mm | - | 33 W/m² | - |
| 1788449972 | 28.33° C | 90% | 1018.3 hPa | 0 mm | - | 28 W/m² | - |
| 1788449668 | 28.33° C | 92% | 1018.3 hPa | 0 mm | - | 19 W/m² | - |
| 1788449364 | 28.33° C | 95% | 1018.3 hPa | 0 mm | - | 22 W/m² | - |
| 1788449060 | 28.33° C | 96% | 1018.2 hPa | 0 mm | - | 19 W/m² | - |
| 1788448755 | 27.78° C | 96% | 1018.1 hPa | 0 mm | - | 18 W/m² | - |
* Rain latest hour (hover to see other rain measurements)
** Current wind speed in m/s (hover to see current wind gust speed)